Simultaneous Nadir Overpasses (SNOs) Predictions

Prediction of SNOs between METOP-A and NOAA-19 Satellite Orbit:

Table of predicted SNOs for the next 14.0 days since TLE Epoch: 9/15/2017
Index Date (METOP-A) Time (METOP-A) Lat,Lon (METOP-A) SZA (METOP-A ) Date (NOAA-19) Time (NOAA-19) Lat,Lon (NOAA-19) SZA (NOAA-19 ) Distance(km) Time Diff (sec)
1 09/24/2017 11:26:30 77.91, 15.34 78.64 09/24/2017 11:25:22 77.95, 12.62 78.59 63.51 68
2 09/24/2017 12:17:18 -77.64,-178.66 101.67 09/24/2017 12:16:20 -77.65,-178.52 101.66 3.50 58
3 09/24/2017 13:07:58 77.64, -11.30 78.36 09/24/2017 13:07:16 77.66, -11.31 78.37 2.19 42
4 09/24/2017 13:58:39 -77.66, 156.11 101.62 09/24/2017 13:58:21 -77.63, 156.07 101.65 3.21 18
5 09/24/2017 14:49:20 77.62, -36.74 78.36 09/24/2017 14:49:17 77.64, -36.72 78.38 2.42 3
6 09/24/2017 15:40:01 -77.64, 130.67 101.61 09/24/2017 15:40:22 -77.61, 130.66 101.64 2.94 21
7 09/24/2017 16:30:42 77.60, -62.17 78.36 09/24/2017 16:31:18 77.62, -62.12 78.39 2.79 36
8 09/24/2017 17:21:23 -77.62, 105.24 101.61 09/24/2017 17:22:23 -77.59, 105.26 101.62 2.80 60
9 09/24/2017 18:12:05 77.54, -87.80 78.32 09/24/2017 18:13:18 77.56, -87.33 78.37 11.72 73




NCC Satellite Simultaneous Nadir Overpasses (SNOs) Prediction Service
